Regional Weather Roundup
Issued by NWS

Home | Current Version | Previous Version | Graphics & Text | Print | Product List | Glossary On
Versions: 1 2 3 4 5 6 7 8 9 10 11 12 13 14 15 16 17 18 19 20 21 22 23 24 25 26 27
000
ASUS45 KCYS 281310
RWRWY

WYOMING REGIONAL WEATHER ROUNDUP
NATIONAL WEATHER SERVICE CHEYENNE WY
700 AM MDT WED SEP 28 2016

NOTE:  "FAIR" INDICATES FEW OR NO CLOUDS BELOW 12,000 FEET
WITH NO SIGNIFICANT WEATHER AND/OR OBSTRUCTIONS TO VISIBILITY.

WYZ001-281400-
YELLOWSTONE NATIONAL PARK

CITY           SKY/WX    TMP DP  RH WIND       PRES   REMARKS
LK YELLOWSTONE   N/A     30  30 100 NW3       30.42S
W YELLOWSTONE  NOT AVBL

$$
WYZ002>013-054>058-071-098>099-281400-
NORTHERN WYOMING

CITY           SKY/WX    TMP DP  RH WIND       PRES   REMARKS
JACKSON        CLEAR     36  34  93 N6        30.36S WCI  31
CODY           FAIR      47  39  74 N10       30.30R
GREYBULL       FAIR      47  44  90 CALM      30.24R
WORLAND        FAIR      44  42  93 S3        30.25R
SHERIDAN       FAIR      43  39  86 NW6       30.26R
BUFFALO        FAIR      56  36  47 W6        30.30R
GILLETTE       FAIR      43  41  93 S5        30.26R
HULETT         FAIR      48  41  76 S5        30.28R
NEWCASTLE      FAIR      48  37  66 N8        30.27R

$$
WYZ014>020-022>026-101>103-281400-
CENTRAL WYOMING

CITY           SKY/WX    TMP DP  RH WIND       PRES   REMARKS
BIG PINEY      FAIR      35  30  82 CALM      30.39R
PINEDALE       PTSUNNY   32  32 100 NW9       30.40R WCI  24
DUBOIS         FAIR      39  32  75 NW9       30.41R WCI  33
LANDER         FAIR      50  35  56 SW6       30.31R
RIVERTON       FAIR      46  41  82 NW9       30.32R
CASPER         FAIR      40  36  86 SW7       30.32R
DOUGLAS        FAIR      41  37  86 N7        30.32R

$$
WYZ021-027>030-104>119-281400-
SOUTHERN WYOMING

CITY           SKY/WX    TMP DP  RH WIND       PRES   REMARKS
EVANSTON       FAIR      48  35  60 E8        30.34R
FORT BRIDGER   FAIR      46  37  69 CALM      30.38R
ROCK SPRINGS   FAIR      44  36  73 E5        30.36R
DIXON          FAIR      39  33  77 CALM      30.37R
RAWLINS        FAIR      32  27  81 N3        30.38R
SARATOGA       FAIR      32  28  86 CALM      30.39R
LARAMIE        FAIR      36  29  75 SW3       30.40R
CHEYENNE       FAIR      46  31  55 W12       30.34R
TORRINGTON     FAIR      44  39  82 NW6       30.26R
PINE BLUFFS    FAIR      36  32  87 MISG      30.30R

$$




USA.gov is the U.S. government's official web portal to all federal, state and local government web resources and services.